Fort Leonard Wood, MO

7:03 AM CDT on September 25, 2017 (GMT -0500)
Waynesville Regional At Forney Field

Weather History for KTBN - April, 2013

Change the Weather History Date:

Thursday, April 11, 2013

  Actual Average Record
Temperature  
Mean Temperature 40 °F -  
Max Temperature 45 °F 65 °F 78 °F (2002)
Min Temperature 35 °F 46 °F 35 °F (2009)
Degree Days  
Heating Degree Days 25    
Moisture  
Dew Point 37 °F    
Average Humidity 93    
Maximum Humidity 100    
Minimum Humidity 59    
Precipitation  
Precipitation 0.00 in - - ()
Sea Level Pressure  
Sea Level Pressure 29.76 in    
Wind  
Wind Speed 8 mph (West)    
Max Wind Speed 15 mph    
Max Gust Speed 23 mph    
Visibility 10 miles    
Events Rain    
Averages and records for this station are not official NWS values.
T = Trace of Precipitation, MM = Missing Value Source: NWS Daily Summary

Daily Weather History Graph

Daily Weather History Graph

Search for Another Location

Airport or City:

Trip Planner

Search our weather history database for the weather conditions in past years. The results will help you decide how hot, cold, wet, or windy it might be!

Date:

Astronomy

Apr. 11, 2013 Rise Set
Actual Time 6:38 AM CDT 7:40 PM CDT
Civil Twilight 6:11 AM CDT 8:07 PM CDT
Nautical Twilight 5:39 AM CDT 8:39 PM CDT
Astronomical Twilight 5:06 AM CDT 9:13 PM CDT
Moon 7:12 AM CDT (4/11) 9:13 PM CDT (4/11)
Length of Visible Light 13h 55m
Length of Day
13h 02m
New Moon, 2% of the Moon is Illuminated
Apr 11
New Moon
Apr 18
First Quarter
Apr 25
Full
May 2
Last Quarter
May 9
New

Hourly Weather History & Observations

Time (CDT) Temp. Windchill Dew Point Humidity Pressure Visibility Wind Dir Wind Speed Gust Speed Precip Events Conditions
12:03 AM 42.8 °F 38.0 °F 42.8 °F 100% 29.77 in 10.0 mi West 8.1 mph - N/A   Overcast
12:58 AM 42.8 °F 39.3 °F 42.8 °F 100% 29.77 in 10.0 mi West 5.8 mph - N/A   Overcast
1:13 AM 42.8 °F 39.3 °F 42.8 °F 100% 29.77 in 10.0 mi Variable 5.8 mph - N/A   Overcast
1:23 AM 42.8 °F 38.0 °F 42.8 °F 100% 29.77 in 10.0 mi West 8.1 mph - N/A   Overcast
1:58 AM 41.0 °F 34.3 °F 41.0 °F 100% 29.75 in 10.0 mi West 11.5 mph - N/A   Overcast
2:28 AM 41.0 °F 34.7 °F 41.0 °F 100% 29.75 in 10.0 mi West 10.4 mph 18.4 mph N/A   Overcast
2:58 AM 40.6 °F 34.8 °F 40.6 °F 100% 29.74 in 9.0 mi West 9.2 mph - N/A   Overcast
3:15 AM 41.0 °F 36.4 °F 41.0 °F 100% 29.74 in 10.0 mi Variable 6.9 mph - N/A   Light Drizzle
3:25 AM 41.0 °F 34.7 °F 41.0 °F 100% 29.74 in 10.0 mi West 10.4 mph - N/A   Light Drizzle
3:26 AM 41.0 °F 35.8 °F 41.0 °F 100% 29.74 in 10.0 mi West 8.1 mph - N/A   Overcast
3:58 AM 39.6 °F 35.4 °F 39.6 °F 100% 29.75 in 10.0 mi West 5.8 mph - 0.00 in   Overcast
4:38 AM 39.2 °F 34.2 °F 39.2 °F 100% 29.74 in 10.0 mi West 6.9 mph - N/A   Overcast
4:58 AM 39.2 °F 32.0 °F 39.2 °F 100% 29.74 in 10.0 mi West 11.5 mph - N/A   Overcast
5:18 AM 39.2 °F 32.5 °F 39.2 °F 100% 29.73 in 10.0 mi West 10.4 mph - N/A   Overcast
5:28 AM 39.2 °F 33.6 °F 39.2 °F 100% 29.72 in 10.0 mi West 8.1 mph - N/A   Overcast
5:46 AM 39.2 °F 35.0 °F 39.2 °F 100% 29.75 in 10.0 mi West 5.8 mph - N/A   Overcast
5:58 AM 38.1 °F 32.3 °F 38.1 °F 100% 29.76 in 8.0 mi WSW 8.1 mph - 0.00 in   Overcast
6:11 AM 37.4 °F 29.3 °F 37.4 °F 100% 29.76 in 10.0 mi West 12.7 mph - N/A   Overcast
6:21 AM 37.4 °F 32.8 °F 37.4 °F 100% 29.76 in 10.0 mi West 5.8 mph - N/A   Overcast
6:46 AM 37.4 °F 30.3 °F 37.4 °F 100% 29.76 in 10.0 mi West 10.4 mph - N/A   Overcast
6:51 AM 37.4 °F 30.3 °F 37.4 °F 100% 29.76 in 10.0 mi West 10.4 mph - N/A   Overcast
6:58 AM 37.2 °F 29.6 °F 37.0 °F 99% 29.77 in 10.0 mi West 11.5 mph - 0.00 in   Overcast
7:05 AM 37.4 °F 30.3 °F 37.4 °F 100% 29.76 in 9.0 mi West 10.4 mph - N/A   Light Drizzle
7:37 AM 37.4 °F 32.1 °F 37.4 °F 100% 29.75 in 10.0 mi West 6.9 mph - N/A   Overcast
7:58 AM 37.4 °F 32.8 °F 37.4 °F 100% 29.78 in 10.0 mi West 5.8 mph - 0.00 in   Overcast
8:41 AM 35.6 °F 28.6 °F 35.6 °F 100% 29.75 in 10.0 mi WNW 9.2 mph 16.1 mph N/A   Overcast
8:54 AM 35.6 °F 28.6 °F 35.6 °F 100% 29.75 in 10.0 mi West 9.2 mph - N/A   Overcast
8:58 AM 36.1 °F 29.9 °F 36.0 °F 99% 29.78 in 10.0 mi West 8.1 mph - 0.00 in   Overcast
9:13 AM 35.6 °F 28.6 °F 35.6 °F 100% 29.76 in 10.0 mi WSW 9.2 mph - N/A   Overcast
9:28 AM 35.6 °F 29.9 °F 35.6 °F 100% 29.76 in 10.0 mi WSW 6.9 mph - N/A   Overcast
9:44 AM 35.6 °F 28.0 °F 35.6 °F 100% 29.75 in 10.0 mi West 10.4 mph - N/A   Overcast
9:58 AM 36.0 °F 29.0 °F 35.8 °F 99% 29.78 in 8.0 mi West 9.2 mph - 0.00 in Rain Light Rain
10:28 AM 35.6 °F 29.2 °F 35.6 °F 100% 29.75 in 10.0 mi West 8.1 mph - N/A Rain Light Rain
10:33 AM 35.6 °F 29.9 °F 35.6 °F 100% 29.75 in 10.0 mi West 6.9 mph - N/A   Light Drizzle
10:38 AM 35.6 °F 29.2 °F 35.6 °F 100% 29.76 in 10.0 mi West 8.1 mph - N/A   Light Drizzle
10:58 AM 36.0 °F 31.1 °F 35.6 °F 99% 29.80 in 10.0 mi Variable 5.8 mph - 0.00 in   Light Drizzle
11:13 AM 35.6 °F 29.2 °F 35.6 °F 100% 29.78 in 10.0 mi WSW 8.1 mph - N/A   Light Drizzle
11:18 AM 35.6 °F 31.7 °F 35.6 °F 100% 29.77 in 10.0 mi Variable 4.6 mph - N/A   Light Drizzle
11:21 AM 37.4 °F 31.4 °F 37.4 °F 100% 29.78 in 10.0 mi WSW 8.1 mph - N/A   Overcast
11:31 AM 37.4 °F 31.4 °F 37.4 °F 100% 29.77 in 10.0 mi WSW 8.1 mph - N/A   Overcast
11:36 AM 37.4 °F 30.8 °F 37.4 °F 100% 29.77 in 10.0 mi WSW 9.2 mph - N/A   Overcast
11:41 AM 37.4 °F 32.1 °F 37.4 °F 100% 29.77 in 10.0 mi Variable 6.9 mph - N/A   Overcast
11:56 AM 37.4 °F 32.8 °F 35.6 °F 93% 29.78 in 10.0 mi Variable 5.8 mph - N/A   Overcast
11:58 AM 37.4 °F 32.8 °F 35.6 °F 93% 29.81 in 10.0 mi Variable 5.8 mph - 0.00 in   Overcast
12:03 PM 37.4 °F 30.3 °F 35.6 °F 93% 29.77 in 10.0 mi SW 10.4 mph - N/A   Overcast
12:58 PM 38.3 °F 33.9 °F 34.7 °F 87% 29.80 in 10.0 mi Variable 5.8 mph 17.3 mph N/A   Overcast
1:08 PM 39.2 °F 32.5 °F 33.8 °F 81% 29.76 in 10.0 mi WSW 10.4 mph - N/A   Overcast
1:58 PM 39.7 °F 34.3 °F 34.0 °F 80% 29.78 in 10.0 mi WSW 8.1 mph 18.4 mph N/A   Overcast
2:58 PM 41.0 °F 35.8 °F 33.4 °F 74% 29.75 in 10.0 mi WSW 8.1 mph 18.4 mph N/A   Overcast
3:33 PM 42.8 °F 37.5 °F 32.0 °F 66% 29.72 in 10.0 mi West 9.2 mph 17.3 mph N/A   Mostly Cloudy
3:58 PM 42.6 °F 35.2 °F 32.2 °F 67% 29.75 in 10.0 mi West 15.0 mph 18.4 mph N/A   Mostly Cloudy
4:58 PM 45.0 °F 38.9 °F 31.8 °F 60% 29.72 in 10.0 mi WSW 12.7 mph 18.4 mph N/A   Overcast
5:58 PM 43.9 °F 37.9 °F 30.2 °F 59% 29.75 in 10.0 mi West 11.5 mph 23.0 mph N/A   Overcast
6:58 PM 43.3 °F 38.1 °F 30.2 °F 60% 29.75 in 10.0 mi WNW 9.2 mph - N/A   Overcast
7:58 PM 42.1 °F 37.7 °F 30.4 °F 63% 29.77 in 10.0 mi West 6.9 mph - N/A   Overcast
8:58 PM 39.9 °F 37.8 °F 30.6 °F 69% 29.78 in 10.0 mi WSW 3.5 mph - N/A   Scattered Clouds
9:58 PM 37.8 °F 34.2 °F 30.6 °F 75% 29.80 in 10.0 mi WSW 4.6 mph - N/A   Partly Cloudy
10:58 PM 36.9 °F 33.1 °F 30.4 °F 77% 29.80 in 10.0 mi WSW 4.6 mph - N/A   Clear
11:58 PM 35.4 °F 30.5 °F 30.6 °F 82% 29.79 in 10.0 mi SW 5.8 mph - N/A   Clear